{"data":{"norad_id":47623,"epoch":"2026-06-29T18:32:33.874656Z","epoch_age_seconds":7173406,"freshness":"OLD","line1":"1 47623U 21012D   26180.77261429  .12302012  12461-4  24119-3 0  9992","line2":"2 47623  53.0094 122.3884 0009388 238.2608 121.7526 16.46507855299203","mean_motion":16.46507855,"eccentricity":0.0009388,"inclination_deg":53.0094,"raan_deg":122.3884,"arg_perigee_deg":238.2608,"mean_anomaly_deg":121.7526,"bstar":0.00024119,"rev_number":29920,"period_min":87.457827524303,"perigee_km":142.42050820038,"apogee_km":154.67501150548,"semimajor_km":6526.6847598529,"source":"CELESTRAK","updated_at":"2026-06-30T09:00:23.397169Z"}}